Regional Weather Roundup
Issued by NWS State College, PA

Home | Current Version | Previous Version | Text Only | Print | Product List | Glossary Off
Versions: 1 2 3 4 5 6 7 8 9 10 11 12 13 14 15 16 17 18 19 20 21 22 23 24 25 26 27 28 29 30 31 32 33 34 35 36 37 38 39 40 41 42 43 44 45 46 47 48 49 50

000
ASUS41 KCTP 200903
RWRCTP

REGIONAL WEATHER ROUNDUP
NATIONAL WEATHER SERVICE STATE COLLEGE PA
500 AM EDT SUN AUG 20 2017

Note: "fair" indicates few or no clouds below 12,000 feet with no
significant weather and/or obstructions to visibility.

* = STATION THAT DOES NOT REPORT PRECIPITATION /E.G. RAIN...SNOW...ETC/
    THUNDER OR FOG.

PAZ002>004-007>009-013>016-020>023-029>032-201000-
WESTERN PENNSYLVANIA

CITY           SKY/WX    TMP DP  RH WIND       PRES   REMARKS
ERIE           CLEAR     62  58  86 S6        30.05R
MEADVILLE      CLEAR     59  59 100 S5        30.09R
FRANKLIN*      CLOUDY    54  52  94 S6        30.10R VSB 1/4
NEW CASTLE     FOG       57  57 100 CALM      30.10R VSB 1/4
BEAVER COUNTY  NOT AVBL
BUTLER*        FOG       56  56 100 CALM      30.11R VSB 1/4
PITTSBURGH INT FOG       61  61 100 CALM      30.09S VSB<1/4
PITTSBURGH     FOG       59  57  93 CALM      30.09R VSB 1/4
INDIANA*       FOG       57  57 100 CALM      30.13S VSB 3/4
LATROBE        FOG       55  55 100 CALM      30.11R VSB<1/4
WASHINGTON CO* MOCLDY    55  54  94 CALM      30.09S VSB 3/4
$$

PAZ004>006-010>012-017>019-024>028-033>037-041-042-045-046-049>053-201000-
CENTRAL PENNSYLVANIA

CITY           SKY/WX    TMP DP  RH WIND       PRES   REMARKS
BRADFORD       PTCLDY    50  50 100 CALM      30.09R
DUBOIS         FOG       55  53  93 CALM      30.10R VSB 1/4
CLEARFIELD     FOG       58  58 100 SW6       30.11R VSB 1/4
JOHNSTOWN      CLEAR     59  58  96 SW3       30.12R FOG
ALTOONA        CLEAR     56  56 100 CALM      30.10R
STATE COLLEGE  CLEAR     56  56  99 SW5       30.09R FOG
WILLIAMSPORT   PTCLDY    63  61  93 W6        30.04R
SELINSGROVE    CLEAR     57  57 100 CALM      30.05R FOG
FT INDIANTOWN  CLEAR     62  62  99 W6        30.03R
CAPITAL CITY   CLEAR     65  59  81 W8        30.04R
HARRISBURG     PTCLDY    66  62  87 NW9       30.03R
YORK           CLEAR     59  59 100 CALM      30.05R
$$

PAZ038>040-043-044-047-048-054-055-060>062-067>071-201000-
EASTERN PENNSYLVANIA

CITY           SKY/WX    TMP DP  RH WIND       PRES   REMARKS
SCRANTON       CLOUDY    63  62  97 SW7       30.03R
MOUNT POCONO     N/A     59  59 100 NW9       30.03R
ALLENTOWN      CLEAR     63  59  87 W5        30.01R
QUAKERTOWN*    SUNNY     64  61  88 NW3       30.02R
READING        PTCLDY    62  62 100 NW6       30.02R
LANCASTER      CLEAR     62  61  96 W7        30.04R
COATESVILLE    SUNNY     63  61  94 NW8       30.05R
POTTSTOWN      CLEAR     62  61  96 W5        30.03R
BLUE BELL      CLEAR     63  61  94 CALM      30.03R
DOYLESTOWN     CLEAR     64  60  87 NW5       30.00R
WILLOW GROVE   NOT AVBL
NORTH PHILA    CLEAR     68  60  75 NW6       30.02R
PHILADELPHIA   CLEAR     70  59  68 W8        30.01R
$$




USA.gov is the U.S. government's official web portal to all federal, state and local government web resources and services.